EKRAN 2 DEB, 12996

Orbit data source: Space-Track

EKRAN 2 DEB, 12996 is space debris in GEO originally from a launch on Tue, 20 Sep 1977 UTC launched from the Tyuratam Missile And Space Complex (TTMTR). Debris objects in space refer to the collection of defunct objects orbiting the Earth. Examples of debris include non-operational satellites, rocket bodies, and fragments generated from explosions, collisions, or faulty payload assembly.

Not visible in the next 10 days
Identifier
12996, 1977-092J
Orbit
GEO
Country
Flag of CISCIS
Related business
Manufacturer
Unknown
Mission
Spacecraft
Bus & Motor
Unknown
Mass
Unknown
Launch date (UTC)
1977-09-20 (48 years ago)
Launch vehicle
Unknown
Launch site
Tyuratam Missile And Space Complex (TTMTR)
Object type
Payload
Rocket body
Debris
Shape & HBR
Unknown
Radar Cross Section
Medium (>0.1 m² and <1 m²)

Expand to show TLE details & history
Last TLE update: 20 hours ago

TLE from 20 hours ago
0 EKRAN 2 DEB
1 12996U 77092J   25260.89961093 -.00000198  00000-0  00000-0 0  9991
2 12996   5.0105 278.4911 0022967 278.5418 282.0276  1.00060348 81786
Epoch: 2025-09-17T21:35Z
TLE epoch observation values (Epoch: 2025-09-17T21:35:26.384Z)
Latitude
-1.75037°
Longitude
157.8182°
Altitude
35,825.261 km
Speed
3.074 km/s
True Right ascension
07h 54m 59s
True Declination
-1° 44' 55"
Sunlit
Object was in daylight at epoch
Visualization orbit readout
Latitude
Unknown
Longitude
Unknown
Altitude
Unknown
Speed
Unknown
Apparent Right ascension
Unknown
Apparent Declination
Unknown
Sunlit
N/A
Visualization observer readout
Local Sidereal Time
10:26:22
Azimuth
Unknown
Elevation
Unknown
Doppler factor
Unknown
Orbital elements
Apogee altitude
35,944.008 km
Perigee altitude
35,750.051 km
Semi-major axis
42,225.167 km
Eccentricity
0.0023
Inclination
5.0105°
RAAN
278.4911°
Arg. of periapsis
278.5418°
True anomaly
281.77004°
Mean anomaly
282.0276°
Eccentric anomaly
281.89884°
Mean motion
0.25014 °/min
Orbital period
1,439.18 mins
BSTAR
0
Loading maneuver chart data...
Computing Atmospheric mass density...
Loading historical data...
Loading historical data...
Loading historical data...
Loading historical data...
Loading historical data...
Loading historical data...
Loading historical data...

Documentation

Showing up to 5 results
|